Weather History for Austin Bergstrom, TX

Change the Weather History Date:

Tuesday, November 26, 2013

  Actual Average Record
Temperature  
Mean Temperature 46 °F 55 °F  
Max Temperature 53 °F 68 °F 85 °F (1988)
Min Temperature 38 °F 42 °F 27 °F (1999)
Degree Days  
Heating Degree Days 19 11  
Month to date heating degree days 212 187  
Since 1 July heating degree days 248 238  
Cooling Degree Days 0 1  
Month to date cooling degree days 37 36  
Year to date cooling degree days 3040 2739  
Moisture  
Dew Point 32 °F    
Average Humidity 65    
Maximum Humidity 85    
Minimum Humidity 44    
Precipitation  
Precipitation T in 0.09 in 1.56 in (1982)
Month to date precipitation 2.16 2.60  
Year to date precipitation 36.18 29.55  
Snow  
Snow 0.00 in - - ()
Month to date snowfall 0.0  
Since 1 July snowfall 0.0  
Since 1 September snowfall 0.0  
Snow Depth 0.00 in    
Sea Level Pressure  
Sea Level Pressure 30.24 in    
Wind  
Wind Speed 14 mph (NNW)    
Max Wind Speed 22 mph    
Max Gust Speed 31 mph    
Visibility 10 miles    
Events Rain    
T = Trace of Precipitation, MM = Missing Value Source: NWS Daily Summary

Daily Weather History Graph

Daily Weather History Graph

Search for Another Location

Airport:

Trip Planner

Search our weather history database for the weather conditions in past years. The results will help you decide how hot, cold, wet, or windy it might be!

Date:

Astronomy

Nov. 26, 2013 Rise Set
Actual Time 7:05 AM CST 5:30 PM CST
Civil Twilight 6:39 AM CST 5:56 PM CST
Nautical Twilight 6:10 AM CST 6:25 PM CST
Astronomical Twilight 5:41 AM CST 6:54 PM CST
Moon 12:37 AM CST (11/26) 1:12 PM CST (11/26)
Length of Visible Light 11h 16m
Length of Day
10h 24m
Last Quarter, 41% of the Moon is Illuminated
Nov 26
Last Quarter
Dec 2
New
Dec 9
First Quarter
Dec 17
Full
Dec 25
Last Quarter

Hourly Weather History & Observations

Time (CST) Temp. Windchill Dew Point Humidity Pressure Visibility Wind Dir Wind Speed Gust Speed Precip Events Conditions
12:53 AM 39.0 °F 31.8 °F 35.1 °F 86% 30.19 in 10.0 mi North 11.5 mph - N/A   Overcast
1:37 AM 39.2 °F 30.8 °F 35.6 °F 87% 30.12 in 10.0 mi NNW 15.0 mph 21.9 mph N/A   Overcast
1:53 AM 39.0 °F 29.6 °F 34.0 °F 82% 30.17 in 10.0 mi North 18.4 mph 23.0 mph N/A   Overcast
2:53 AM 39.0 °F 30.6 °F 34.0 °F 82% 30.21 in 10.0 mi North 15.0 mph - N/A   Overcast
3:53 AM 39.0 °F 32.3 °F 33.1 °F 79% 30.18 in 10.0 mi North 10.4 mph - N/A   Overcast
4:53 AM 39.0 °F 31.0 °F 33.1 °F 79% 30.18 in 10.0 mi NNW 13.8 mph 24.2 mph N/A   Overcast
5:53 AM 37.9 °F 30.0 °F 33.1 °F 83% 30.20 in 10.0 mi North 12.7 mph - 0.00 in Rain Light Rain
6:53 AM 39.0 °F 29.9 °F 32.0 °F 76% 30.21 in 10.0 mi NNW 17.3 mph 21.9 mph 0.00 in   Overcast
7:53 AM 39.0 °F 30.3 °F 32.0 °F 76% 30.23 in 10.0 mi NNW 16.1 mph 23.0 mph N/A   Overcast
8:53 AM 39.9 °F 32.1 °F 33.1 °F 77% 30.25 in 10.0 mi NNW 13.8 mph 23.0 mph N/A   Overcast
9:53 AM 42.1 °F 34.5 °F 33.1 °F 70% 30.25 in 10.0 mi NNW 15.0 mph 23.0 mph N/A   Overcast
10:53 AM 44.1 °F 36.2 °F 34.0 °F 68% 30.24 in 10.0 mi NNW 18.4 mph 25.3 mph N/A   Overcast
11:53 AM 46.0 °F 39.3 °F 34.0 °F 63% 30.23 in 10.0 mi NW 16.1 mph 23.0 mph N/A   Mostly Cloudy
12:53 PM 45.0 °F 37.9 °F 34.0 °F 65% 30.21 in 10.0 mi NW 16.1 mph 27.6 mph N/A   Overcast
1:29 PM 46.4 °F 40.1 °F 33.8 °F 62% 30.18 in 10.0 mi NW 15.0 mph 25.3 mph N/A   Overcast
1:53 PM 48.9 °F - 36.0 °F 61% 30.20 in 10.0 mi NNW 13.8 mph 21.9 mph N/A   Mostly Cloudy
2:53 PM 48.9 °F - 35.1 °F 59% 30.20 in 10.0 mi NW 13.8 mph 24.2 mph N/A   Overcast
3:53 PM 52.0 °F - 35.1 °F 53% 30.20 in 10.0 mi NW 12.7 mph 26.5 mph N/A   Scattered Clouds
4:53 PM 52.0 °F - 30.9 °F 45% 30.22 in 10.0 mi NNW 11.5 mph 24.2 mph N/A   Partly Cloudy
5:53 PM 48.9 °F - 30.9 °F 50% 30.24 in 10.0 mi NNW 10.4 mph - N/A   Clear
6:53 PM 48.0 °F - 30.9 °F 52% 30.28 in 10.0 mi NNW 8.1 mph - N/A   Clear
7:53 PM 46.9 °F - 30.0 °F 52% 30.30 in 10.0 mi NNW 11.5 mph - N/A   Clear
8:53 PM 46.0 °F 39.0 °F 28.0 °F 50% 30.32 in 10.0 mi NNW 17.3 mph 23.0 mph N/A   Clear
9:53 PM 45.0 °F 37.6 °F 28.0 °F 52% 30.34 in 10.0 mi North 17.3 mph - N/A   Clear
10:53 PM 44.1 °F 38.1 °F 27.0 °F 51% 30.37 in 10.0 mi NW 11.5 mph 17.3 mph N/A   Clear
11:53 PM 43.0 °F 36.8 °F 27.0 °F 53% 30.37 in 10.0 mi NNW 11.5 mph - N/A   Clear